EHI
0 0 0 0 0 0 0 0 0 0 0 0 0 0 0 0 0 0 0 0 0 0 0 0 0 0 0 0 0 0 0 0 0 0 1 2 3 3
0 0 0 0 0 0 0 0 0 0 0 0 0 0 0 0 0 0 0 0 0 0 0 0 0 0 0 0 0 0 0 0 0 0 1 2 3 3
0 0 0 0 0 0 0 0 0 0 0 0 0 0 0 0 0 0 0 0 0 0 0 0 0 0 0 0 0 0 0 0 0 0 0 1 1 2
0 0 0 0 0 0 0 0 0 0 0 0 0 0 0 0 0 0 0 0 0 0 0 0 0 0 0 0 0 0 0 0 0 0 0 0 0 1
0 0 0 0 0 0 0 0 0 0 0 0 0 0 0 0 0 0 0 0 0 0 0 0 0 0 0 0 0 0 0 0 0 0 0 0 0 0
0 0 0 0 0 0 0 0 0 0 0 0 0 0 0 0 0 0 0 0 0 0 0 0 0 0 0 0 0 0 0 0 0 0 0 0 0 0
0 0 0 0 0 0 0 0 0 0 0 0 0 0 0 0 0 0 0 0 0 0 0 0 0 0 0 0 0 0 0 0 0 0 0 0 0 0
0 0 0 0 0 0 0 0 0 0 0 0 0 0 0 0 0 0 0 0 0 0 0 0 0 0 0 0 0 0 0 0 0 0 0 0 0 0
0 0 0 0 0 0 0 0 0 0 0 0 0 0 0 0 0 0 0 0 0 0 0 0 0 0 0 0 0 0 0 0 0 0 0 0 0 0
0 0 0 0 0 0 0 0 0 0 0 0 0 0 0 0 0 0 0 0 0 0 0 0 0 0 0 0 0 0 0 0 0 0 0 0 0 0
0 0 0 0 0 0 0 0 0 0 0 0 0 0 0 0 0 0 0 0 0 0 0 0 0 0 0 0 0 0 0 0 0 0 0 0 0 0
0 0 0 0 0 0 0 0 0 0 0 0 0 0 0 0 0 0 0 0 0 0 0 0 0 0 0 0 0 0 0 0 0 0 0 0 0 0
0 0 0 0 0 0 0 0 0 0 0 0 0 0 0 0 0 0 0 0 0 0 0 0 0 0 0 0 0 0 0 0 0 0 0 0 0 0
0 0 0 0 0 0 0 0 0 0 0 0 0 0 0 0 0 0 0 0 0 0 0 0 0 0 0 0 0 0 0 0 0 0 0 0 0 0
0 0 0 0 0 0 0 0 0 0 0 0 0 0 0 0 0 0 0 0 0 0 0 0 0 0 0 0 0 0 0 0 0 0 0 0 0 0
0 0 0 0 0 0 0 0 0 0 0 0 0 0 0 0 0 0 0 0 0 0 0 0 0 0 0 0 0 0 0 0 0 0 0 0 0 0
0 0 0 0 0 0 0 0 0 0 0 0 0 0 0 0 0 0 0 0 0 0 0 0 0 0 0 0 0 0 0 0 0 0 0 0 0 0
0 0 0 0 0 0 0 0 0 0 0 0 0 0 0 0 0 0 0 0 0 0 0 0 0 0 0 0 0 0 0 0 0 0 0 0 0 0
0 0 0 0 0 0 0 0 0 0 0 0 0 0 0 0 0 0 0 0 0 0 0 0 0 0 0 0 0 0 0 0 0 0 0 0 0 0
0 0 0 0 0 0 0 0 0 0 0 0 0 0 0 0 0 0 0 0 0 0 0 0 0 0 0 0 0 0 0 0 0 0 0 0 0 0
0 0 0 0 0 0 0 0 0 0 0 0 0 0 0 0 0 0 0 0 0 0 0 0 0 0 0 0 0 0 0 0 0 0 0 0 0 0
0 0 0 0 0 0 0 0 0 0 0 0 0 0 0 0 0 0 0 0 0 0 0 0 0 0 0 0 0 0 0 0 0 0 0 0 0 0
0 0 0 0 0 0 0 0 0 0 0 0 0 0 0 0 0 0 0 0 0 0 0 0 0 0 0 0 0 0 0 0 0 0 0 0 0 0
Wind_Speed
11 12 10 9 8 8 9 9 11 14 13 7 5 4 5 6 11 11 12 14 11 12 12 13 14 15 17 18 19 22 24 24 22 22 22 21 20 19
10 12 12 8 8 8 9 9 10 12 14 7 6 9 11 11 15 12 13 20 12 10 12 11 11 12 13 14 16 17 20 22 23 24 24 23 21 20
12 12 12 11 9 8 9 9 10 11 14 13 9 9 10 11 10 10 11 11 7 8 11 12 11 11 11 12 13 15 17 20 22 24 26 25 23 22
13 11 10 9 10 9 9 10 10 11 12 15 9 7 10 9 8 10 11 9 6 6 8 11 12 12 11 12 12 12 14 17 20 23 25 26 24 24
9 8 9 10 10 9 9 9 8 8 9 11 9 6 6 6 7 8 10 8 7 5 6 9 11 12 12 12 12 12 13 16 19 22 23 24 25 26
7 8 9 10 12 11 9 10 10 8 6 7 7 6 5 5 4 5 6 6 5 2 3 5 8 11 12 13 13 13 13 14 17 19 20 23 26 27
8 9 10 15 21 17 12 12 12 9 6 5 5 4 3 2 2 2 5 5 4 2 2 3 4 4 6 10 12 14 14 14 15 18 21 24 25 26
10 11 11 11 18 23 24 22 20 15 12 8 6 5 4 3 2 2 3 4 4 3 3 2 3 3 4 4 10 14 15 16 17 21 25 26 26 26
11 11 12 14 13 10 17 21 19 23 21 12 9 8 7 6 5 3 2 3 4 2 2 2 2 2 2 4 13 15 17 19 23 27 29 30 30 30
12 12 12 13 15 15 13 12 12 14 17 12 10 10 10 8 6 5 3 4 4 2 1 3 2 3 3 4 13 19 23 27 30 32 34 34 33 32
12 14 15 13 25 25 16 14 13 13 17 22 21 19 20 19 13 4 2 3 2 0 2 3 4 5 5 5 12 24 29 32 34 35 36 35 34 30
10 13 20 22 26 26 15 14 15 14 14 15 15 16 14 14 17 8 4 2 1 1 1 2 4 5 6 5 8 12 19 29 34 35 35 34 31 18
9 9 12 24 25 26 21 15 19 15 12 12 11 11 11 10 11 10 7 3 1 0 1 1 4 4 7 7 6 8 11 14 17 22 26 29 26 19
9 8 12 23 24 25 19 22 25 18 10 10 11 11 11 11 11 11 10 6 4 2 2 1 3 5 11 11 8 7 10 10 12 13 12 20 21 23
8 18 20 22 20 16 23 25 19 12 11 11 12 11 10 11 10 10 10 7 7 9 7 5 3 6 11 14 11 9 10 9 9 11 11 10 10 11
8 13 18 20 16 17 17 15 12 12 11 10 10 10 10 11 10 10 9 7 6 9 12 14 10 7 10 14 16 15 10 9 9 11 12 11 9 8
7 6 7 9 10 10 10 10 10 11 11 11 11 11 11 12 11 10 10 9 8 7 9 11 15 16 15 12 14 12 13 14 11 11 12 12 9 7
8 5 7 8 8 9 9 9 9 10 10 10 10 10 11 11 11 10 10 10 11 10 9 6 8 12 13 17 16 11 13 13 11 10 10 12 9 6
5 4 4 5 5 6 6 6 7 8 8 8 9 9 10 10 10 11 11 10 11 11 10 9 6 8 14 11 11 14 10 12 12 10 8 7 8 6
2 3 3 4 4 4 5 5 5 6 6 7 7 8 9 9 10 10 11 12 11 11 11 12 12 9 9 10 8 8 14 10 10 10 9 8 7 8
3 3 3 3 3 3 4 4 4 5 5 5 6 7 7 8 9 9 10 15 13 11 12 11 11 13 8 9 12 10 11 14 11 7 7 7 5 4
3 3 3 3 3 3 3 3 4 4 5 5 5 5 5 6 7 9 9 9 9 9 10 9 10 10 10 12 13 12 9 8 12 15 12 8 4 4
4 4 3 3 3 3 2 3 3 3 3 4 4 4 4 4 5 6 7 8 8 9 9 9 9 10 11 11 11 10 11 9 7 8 8 11 11 10
Wind_Direction
295 295 289 284 284 280 277 274 279 288 292 289 284 301 334 326 326 329 324 310 251 204 195 199 201 202 204 207 205 199 194 188 184 182 181 184 183 180
295 295 292 286 284 281 276 270 263 267 275 278 287 307 310 306 310 316 313 312 278 208 185 184 188 191 194 198 200 199 196 190 185 183 183 183 179 174
299 295 295 294 292 288 283 274 266 259 265 274 272 278 280 289 297 302 304 302 284 225 190 184 185 185 184 187 192 194 191 186 184 184 185 182 178 171
299 302 307 310 308 302 295 283 271 263 264 271 270 265 265 271 280 290 293 294 281 244 203 188 187 187 187 186 188 192 190 184 182 185 187 182 177 168
309 322 327 333 331 324 317 314 296 273 262 265 265 254 253 256 267 275 281 287 277 248 212 194 188 188 189 189 189 191 191 187 183 185 184 177 170 164
347 347 349 359 352 343 341 341 330 310 281 271 265 254 247 242 235 252 273 274 267 249 202 184 187 189 191 191 191 191 190 190 187 183 178 167 162 159
2 355 356 12 10 5 6 3 355 354 345 323 299 273 259 259 228 214 253 268 265 227 184 178 172 176 185 194 191 189 188 187 182 172 162 155 152 149
4 358 357 7 17 10 11 15 12 11 11 2 351 342 336 326 314 250 239 257 249 217 167 158 154 166 171 178 183 182 180 175 166 155 147 142 137 134
6 2 4 3 21 11 6 13 11 12 18 14 2 354 345 348 329 284 232 247 257 249 146 139 127 136 130 157 166 166 161 153 145 139 133 129 126 124
3 1 7 359 13 22 5 8 11 8 8 10 4 355 352 352 326 294 284 269 267 279 138 127 118 107 96 120 145 144 139 134 131 128 125 122 120 119
3 4 9 8 12 21 12 6 9 6 3 7 9 7 5 4 4 337 296 228 218 213 26 114 117 96 79 90 120 127 127 126 125 123 121 119 118 114
4 1 7 16 13 19 17 7 11 4 356 356 0 1 360 357 6 5 338 293 224 149 10 111 129 114 86 63 97 112 116 119 119 120 120 119 117 114
5 1 4 14 15 17 20 15 14 10 356 356 356 357 359 358 356 351 344 323 306 69 340 95 121 110 113 106 74 87 108 113 112 115 115 117 118 117
1 359 7 17 16 16 18 17 15 12 3 1 2 2 359 356 349 344 342 351 13 29 356 49 126 148 130 122 109 92 86 94 106 108 109 112 110 112
7 15 17 18 15 11 14 17 14 8 6 5 2 357 351 348 349 350 351 357 25 33 26 32 97 141 134 129 123 121 103 85 94 104 104 105 108 111
11 7 15 15 17 13 13 12 10 10 11 4 356 351 351 357 5 5 4 3 27 31 31 40 50 92 117 121 126 126 117 114 112 105 102 93 87 86
13 5 7 8 10 9 8 9 9 9 9 4 2 359 0 3 8 10 16 27 44 41 45 54 61 64 63 92 113 114 115 113 116 116 109 100 85 90
20 2 6 7 8 6 4 4 6 9 7 5 7 5 4 5 8 12 21 31 41 39 37 43 93 96 80 51 45 101 110 112 110 105 110 110 101 86
16 347 348 350 350 353 354 354 357 358 0 5 9 8 8 10 13 17 21 28 35 39 36 30 35 107 107 94 41 41 96 110 108 100 92 102 113 112
336 327 328 333 338 341 345 348 348 353 359 4 8 10 12 16 19 20 24 30 33 39 43 42 43 56 89 103 100 62 61 85 101 102 100 96 93 99
306 308 310 318 326 333 336 341 345 350 355 357 6 9 12 19 25 25 29 34 39 39 45 41 40 55 74 86 90 79 62 67 82 95 107 106 100 92
281 284 289 297 308 317 324 335 344 350 354 358 359 4 9 19 25 28 30 35 39 42 48 45 43 54 66 84 92 92 86 76 80 81 76 86 113 130
273 267 266 275 280 285 293 313 330 338 346 351 356 1 6 16 19 27 32 36 41 44 50 54 56 62 69 79 88 92 91 88 85 78 63 67 82 92